Location: Montreal
(45.5000°N, 73.5833°W)
Time: 02:30:19
(UTC-04:00)

N. Korean satellite - Visible Passes

Search period start: 18 October 2019 00:00
Search period end: 28 October 2019 00:00
Orbit: 455 x 508 km, 97.2° (Epoch: 16 October)

Date Brightness Start Highest point End Pass type
(mag) Time Alt. Az. Time Alt. Az. Time Alt. Az.
18 Oct 8.6 06:22:58 10° NNE 06:26:16 33° E 06:29:36 10° SSE visible
18 Oct 8.9 18:34:02 10° SSW 18:37:04 29° W 18:40:09 10° NNW visible
19 Oct 9.9 05:58:21 10° NE 06:00:50 17° E 06:03:20 10° SE visible
21 Oct 7.5 06:40:15 10° NNE 06:43:49 56° E 06:47:25 10° S visible
21 Oct 9.8 18:52:10 10° SW 18:54:39 18° W 18:57:09 10° NW visible
22 Oct 9.0 06:15:16 10° NE 06:18:26 27° E 06:21:37 10° SSE visible
22 Oct 8.3 18:25:59 10° SSW 18:29:11 37° W 18:32:27 10° NNW visible
23 Oct 10.1 05:50:53 10° ENE 05:52:57 15° E 05:55:03 10° SE visible
24 Oct 10.3 19:10:59 10° WSW 19:12:15 12° W 19:13:32 10° WNW visible
25 Oct 8.0 06:32:26 10° NNE 06:35:58 45° E 06:39:31 10° S visible
25 Oct 9.4 18:43:56 10° SSW 18:46:43 23° W 18:49:33 10° NW visible
26 Oct 9.4 06:07:34 10° NE 06:10:33 23° E 06:13:32 10° SSE visible
26 Oct 7.8 18:17:57 10° S 18:21:16 47° W 18:24:40 10° NNW visible
27 Oct 10.3 05:43:32 10° ENE 05:45:02 12° E 05:46:32 10° ESE visible
